Location: Bishopstone
(51.0167°N, 1.9000°W)
Time: 20:27:10
(UTC+00:00)

Cosmos 1455 Rocket - Pass Details

Date: 16 September 2019
Orbit: 605 x 630 km, 82.5° (Epoch: 21 October)

Event Time Altitude Azimuth Distance (km) Brightness Sun altitude
Exits shadow 21:21:44 26° 236° (SW) 1,248 4.7 -26.5°
Maximum altitude 21:23:41 40° 287° (WNW) 935 4.3 -26.7°
Drops below altitude 10° 21:27:55 10° 358° (N) 2,019 6.3 -27.2°
Sets 21:30:17 0° 6° (N) 2,934 7.1 -27.5°
